[[{"header":{"parameterUnit":"m.s-1","parameterCategory":1,"la1":30.2991,"la2":30.254,"lo1":-89.0895,"lo2":-89.0444,"dy":0.0017,"dx":0.0017,"nx":28,"ny":28,"refTime":"2025-04-23T03:00:00:Z","depth":0,"parameterNumber":2,"parameterNumberName":"U-component_of_WINDS"},"data":[0,0,0,0,0,0,0,0,0,0,0,0,0,0,0,0,0,0,0,0,0,0,0,0,0,0,0,0,0,0,0,0,0,0,0,0,0,0,0,0,0,0,0,0,0,0,0,0,0,0,0,0,0,0,0,0,0,0,-2.2354,-2.2353,0,-2.2326,-2.2326,-2.2325,-2.2263,-2.2262,-2.2261,-2.226,-2.2232,-2.2233,-2.2233,0,0,0,0,0,0,0,0,0,0,0,0,0,-2.2356,-2.2356,-2.2354,-2.2353,-2.2353,-2.2326,-2.2326,-2.2325,-2.2263,-2.2262,-2.226,-2.2259,-2.2232,-2.2233,-2.2233,0,0,0,0,0,0,0,0,0,0,0,0,0,-2.2344,-2.2356,-2.2354,-2.2319,-2.2316,-2.2326,-2.2325,-2.2325,-2.2264,-2.2262,-2.226,-2.2258,-2.2232,-2.2233,-2.2233,-2.2276,0,0,-2.2236,-2.2236,0,0,0,0,0,0,0,0,-2.2345,-2.2344,-2.2324,-2.2321,-2.2318,-2.2296,-2.2316,-2.2309,-2.2264,-2.2284,-2.226,-2.2257,-2.2255,-2.2254,-2.2253,-2.2275,-2.2273,-2.2236,-2.2236,-2.2236,-2.2237,0,0,0,0,0,0,0,-2.2346,-2.2345,-2.2343,-2.2324,-2.232,-2.2305,-2.2302,-2.2314,-2.228,-2.2282,-2.2277,-2.2275,-2.2253,-2.2252,-2.2252,-2.2273,-2.2236,-2.2236,-2.2237,-2.2237,-2.2328,-2.233,0,0,0,0,0,0,-2.2351,-2.2346,-2.2344,-2.2342,-2.2327,-2.2307,-2.2303,-2.2305,-2.228,-2.2274,-2.2276,-2.2272,-2.2252,-2.2251,-2.2251,-2.2298,-2.2236,-2.2237,-2.2237,-2.2326,-2.2329,-2.2331,0,0,0,0,0,0,-2.2352,-2.2352,-2.2345,-2.2343,-2.2341,-2.2309,-2.2312,-2.2305,-2.2305,-2.2276,-2.227,-2.2282,-2.2251,-2.225,-2.227,-2.2296,-2.2237,-2.2238,-2.2324,-2.2327,-2.233,-2.2394,0,0,0,0,0,0,-2.2352,-2.2352,-2.2367,-2.2343,-2.2341,-2.2364,-2.2314,-2.2306,-2.2306,-2.23,-2.2279,-2.2274,-2.2249,-2.2269,-2.2271,-2.2296,-2.2238,-2.2321,-2.2325,-2.2329,-2.2389,-2.2399,-2.2407,0,0,0,0,0,-2.2352,-2.2387,-2.2368,-2.2368,-2.2359,-2.2366,-2.2364,-2.2334,-2.2308,-2.2323,-2.2305,-2.2275,-2.2294,-2.2272,-2.2273,-2.2299,-2.2319,-2.2324,-2.2328,-2.2385,-2.2397,-2.2407,0,0,0,0,0,0,-2.2415,-2.2383,-2.2362,-2.239,-2.2381,-2.2355,-2.2373,-2.2347,-2.2346,-2.234,-2.2303,-2.2299,-2.2325,-2.2314,-2.229,-2.2339,-2.2302,-2.2307,-2.2345,-2.2355,-2.2364,-2.2365,-2.2239,0,0,0,0,0,-2.2432,-2.2439,-2.2411,-2.2439,-2.2435,-2.2406,-2.2407,-2.2385,-2.2374,-2.237,-2.2353,-2.2344,-2.2348,-2.2351,-2.2353,-2.2388,-2.2383,-2.2407,-2.2416,-2.2423,-2.2427,-2.2445,-2.2455,-2.2346,-2.2346,-2.2346,0,0,-2.2467,-2.2451,-2.2458,-2.2451,-2.2441,-2.245,-2.2403,-2.2414,-2.242,-2.2372,-2.2389,-2.2377,-2.2365,-2.2393,-2.2404,-2.2385,-2.2456,-2.2429,-2.2435,-2.2435,-2.245,-2.2461,-2.247,-2.2349,-2.2348,-2.2348,0,0,-2.2536,-2.2525,-2.2546,-2.2537,-2.2523,-2.2503,-2.2509,-2.2487,-2.2476,-2.2494,-2.2458,-2.2465,-2.2473,-2.2465,-2.2463,-2.253,-2.2502,-2.2532,-2.2577,-2.2595,-2.2603,-2.2611,-2.2634,-2.2643,-2.2536,-2.2537,-2.2537,0,-2.2582,-2.2593,-2.256,-2.2574,-2.2572,-2.2529,-2.255,-2.2544,-2.2531,-2.2531,-2.251,-2.2518,-2.2507,-2.2532,-2.2549,-2.2548,-2.2553,-2.2533,-2.2605,-2.2612,-2.2618,-2.264,-2.2649,-2.254,-2.254,-2.2539,-2.2539,0,-2.265,-2.2658,-2.2677,-2.2666,-2.2666,-2.2684,-2.2655,-2.2659,-2.2637,-2.262,-2.2638,-2.2624,-2.2622,-2.2627,-2.2605,-2.2649,-2.2637,-2.2611,-2.2572,-2.2633,-2.2652,-2.2661,-2.2545,-2.2544,-2.2543,-2.2542,0,0,-2.2755,-2.2726,-2.2734,-2.2728,-2.271,-2.2716,-2.2732,-2.273,-2.2735,-2.2728,-2.2741,-2.2748,-2.2724,-2.2721,-2.2699,-2.2714,-2.2768,-2.2686,-2.2685,-2.2701,-2.2815,-2.2834,-2.2844,-2.275,-2.2751,-2.2753,-2.2815,0,-2.2819,-2.2844,-2.2815,-2.2846,-2.2854,-2.2814,-2.2828,-2.2819,-2.2803,-2.2808,-2.2791,-2.2797,-2.2764,-2.2762,-2.2776,-2.2759,-2.279,-2.2754,-2.2761,-2.2762,-2.2764,-2.2855,-2.2875,-2.2935,-2.2823,-2.2824,-2.2825,0,-2.2896,-2.2892,-2.2924,-2.2904,-2.2906,-2.2919,-2.2915,-2.292,-2.2909,-2.2897,-2.2894,-2.2868,-2.2883,-2.2847,-2.2867,-2.2843,-2.2844,-2.2836,-2.2838,-2.2837,-2.2796,-2.2855,-2.2953,-2.2962,-2.2837,-2.2836,-2.2836,0,-2.2969,-2.2973,-2.2992,-2.2988,-2.2966,-2.2976,-2.2967,-2.2954,-2.2955,-2.2952,-2.2952,-2.2951,-2.295,-2.295,-2.2925,-2.2901,-2.2948,-2.291,-2.2938,-2.2939,-2.2949,-2.2948,-2.3048,-2.2952,-2.2952,-2.2952,-2.2951,0,-2.3042,-2.3063,-2.3024,-2.3036,-2.3059,-2.3026,-2.305,-2.3037,-2.3026,-2.3035,-2.3001,-2.301,-2.2976,-2.2982,-2.2962,-2.2981,-2.2982,-2.2972,-2.2966,-2.2975,-2.2976,-2.2974,-2.2969,-2.2954,-2.2953,-2.2953,-2.2953,0,-2.3127,-2.3102,-2.312,-2.3098,-2.3092,-2.311,-2.3091,-2.3101,-2.3084,-2.3096,-2.3097,-2.307,-2.3075,-2.305,-2.3051,-2.3037,-2.3066,-2.3054,-2.307,-2.3066,-2.3095,-2.3092,-2.3196,-2.3208,-2.3106,-2.3107,-2.3108,0,-2.3175,-2.319,-2.3169,-2.3172,-2.3165,-2.3171,-2.3171,-2.3141,-2.3143,-2.3132,-2.3143,-2.3146,-2.3146,-2.3156,-2.3137,-2.3138,-2.3125,-2.3161,-2.3124,-2.3132,-2.3124,-2.3123,-2.3124,-2.3168,-2.317,-2.3171,-2.3172,0,-2.3262,-2.3249,-2.3251,-2.3248,-2.325,-2.3246,-2.3241,-2.3246,-2.3213,-2.3217,-2.3222,-2.3222,-2.3223,-2.3225,-2.3222,-2.3214,-2.3187,-2.3183,-2.319,-2.3198,-2.3206,-2.3201,-2.3089,-2.3181,-2.318,-2.3179,-2.3179,-2.3178,-2.3329,-2.3341,-2.3328,-2.3331,-2.3323,-2.3319,-2.3327,-2.3311,-2.3315,-2.3312,-2.3295,-2.3303,-2.3292,-2.3285,-2.3279,-2.3285,-2.3268,-2.3278,-2.328,-2.3282,-2.3287,-2.3206,-2.3285,-2.3284,-2.3284,-2.3284,-2.3284,0,-2.3414,-2.3404,-2.3407,-2.34,-2.3403,-2.3378,-2.3371,-2.3375,-2.3382,-2.3374,-2.3375,-2.338,-2.3383,-2.3365,-2.3365,-2.3373,-2.3361,-2.3374,-2.3373,-2.3371,-2.3303,-2.3297,-2.3384,-2.3384,-2.3384,-2.3384,-2.3384,-2.3384,-2.3459,-2.3476,-2.3462,-2.3476,-2.3466,-2.3473,-2.3471,-2.3467,-2.346,-2.3468,-2.347,-2.3458,-2.3445,-2.3445,-2.3446,-2.3441,-2.3442,-2.3459,-2.345,-2.3386,-2.3376,-2.3367,-2.3361,-2.346,-2.346,-2.3517,-2.3518,-2.3518]},{"header":{"parameterUnit":"m.s-1","parameterCategory":1,"la1":30.2991,"la2":30.254,"lo1":-89.0895,"lo2":-89.0444,"dy":0.0017,"dx":0.0017,"nx":28,"ny":28,"refTime":"2025-04-23T03:00:00:Z","depth":0,"parameterNumber":3,"parameterNumberName":"V-component_of_WINDS"},"data":[0,0,0,0,0,0,0,0,0,0,0,0,0,0,0,0,0,0,0,0,0,0,0,0,0,0,0,0,0,0,0,0,0,0,0,0,0,0,0,0,0,0,0,0,0,0,0,0,0,0,0,0,0,0,0,0,0,0,2.8378,2.8378,0,2.8382,2.8382,2.8382,2.8352,2.8351,2.835,2.835,2.8352,2.8352,2.8353,0,0,0,0,0,0,0,0,0,0,0,0,0,2.8344,2.8345,2.8378,2.8378,2.8378,2.8382,2.8382,2.8382,2.8352,2.8351,2.835,2.8349,2.8351,2.8352,2.8353,0,0,0,0,0,0,0,0,0,0,0,0,0,2.8354,2.8345,2.8378,2.8364,2.8362,2.8382,2.8382,2.8382,2.8352,2.8351,2.835,2.8349,2.8351,2.8352,2.8353,2.8386,0,0,2.8357,2.8358,0,0,0,0,0,0,0,0,2.8354,2.8356,2.8366,2.8365,2.8363,2.8365,2.8371,2.8383,2.8353,2.8356,2.8349,2.8348,2.8357,2.8358,2.8361,2.8386,2.8386,2.8357,2.8358,2.8359,2.8359,0,0,0,0,0,0,0,2.8353,2.8355,2.8379,2.8366,2.8364,2.8357,2.8357,2.8373,2.8363,2.8356,2.8354,2.8355,2.8356,2.836,2.8361,2.8386,2.8357,2.8358,2.8359,2.836,2.844,2.8441,0,0,0,0,0,0,2.8354,2.8355,2.8379,2.8379,2.8355,2.8358,2.8359,2.8366,2.8363,2.8362,2.8356,2.8353,2.8358,2.8359,2.8361,2.84,2.8359,2.836,2.836,2.8438,2.844,2.8442,0,0,0,0,0,0,2.8354,2.8357,2.8379,2.8367,2.8369,2.836,2.8369,2.8367,2.837,2.8363,2.8361,2.8361,2.8357,2.8359,2.838,2.8399,2.836,2.8361,2.8437,2.8439,2.8441,2.8478,0,0,0,0,0,0,2.8353,2.8357,2.8369,2.8367,2.837,2.8399,2.837,2.8368,2.8373,2.837,2.8368,2.8366,2.8357,2.8379,2.8382,2.84,2.8362,2.8435,2.8438,2.844,2.8475,2.8481,2.8486,0,0,0,0,0,2.8352,2.8378,2.837,2.8373,2.8385,2.84,2.8401,2.839,2.8374,2.8387,2.8382,2.8366,2.8397,2.8381,2.8384,2.8404,2.8434,2.8437,2.844,2.8472,2.848,2.8486,0,0,0,0,0,0,2.8382,2.8378,2.8368,2.8395,2.8398,2.8395,2.841,2.8398,2.8405,2.8402,2.8387,2.8387,2.8411,2.8409,2.8392,2.8436,2.8413,2.8417,2.8436,2.8443,2.8448,2.8448,2.8363,0,0,0,0,0,2.8392,2.8405,2.84,2.8424,2.8427,2.8418,2.8424,2.8416,2.8418,2.8419,2.8416,2.8419,2.8429,2.8436,2.8445,2.8475,2.8474,2.849,2.8495,2.85,2.8503,2.852,2.8527,2.8452,2.8452,2.8452,0,0,2.8411,2.8411,2.842,2.8431,2.8432,2.8446,2.842,2.8435,2.8445,2.8421,2.8442,2.844,2.8442,2.8468,2.8479,2.8467,2.8524,2.8504,2.8508,2.8508,2.8524,2.8531,2.8538,2.8454,2.8454,2.8453,0,0,2.8455,2.8456,2.8477,2.848,2.8483,2.8478,2.8483,2.8482,2.848,2.8501,2.8484,2.8495,2.8513,2.8515,2.8519,2.8566,2.8552,2.857,2.8599,2.8616,2.8622,2.8627,2.8644,2.8651,2.8573,2.8573,2.8573,0,2.848,2.85,2.8489,2.8507,2.8512,2.8493,2.8514,2.8517,2.8522,2.8526,2.8513,2.8536,2.8536,2.8563,2.8575,2.8578,2.8584,2.857,2.8622,2.8627,2.8632,2.8648,2.8655,2.8575,2.8575,2.8575,2.8575,0,2.8531,2.8546,2.8562,2.857,2.8577,2.8596,2.8588,2.8597,2.8588,2.8584,2.8606,2.8605,2.8615,2.862,2.8611,2.8647,2.864,2.8624,2.8601,2.8641,2.8657,2.8663,2.8579,2.8578,2.8577,2.8577,0,0,2.8592,2.8595,2.8601,2.8605,2.8608,2.8619,2.8638,2.8648,2.8657,2.8661,2.8677,2.8694,2.868,2.8684,2.8675,2.869,2.8729,2.8673,2.8673,2.8684,2.8769,2.8781,2.8789,2.872,2.8721,2.8722,2.877,0,2.8636,2.8669,2.866,2.8693,2.8707,2.869,2.8706,2.871,2.8707,2.8718,2.8715,2.8727,2.8708,2.8711,2.8725,2.8721,2.8746,2.8718,2.8734,2.8735,2.8735,2.8797,2.8809,2.8854,2.8775,2.8776,2.8777,0,2.869,2.87,2.8734,2.8737,2.8742,2.8758,2.8767,2.8778,2.8782,2.8779,2.8785,2.8774,2.8793,2.8769,2.8795,2.8776,2.8782,2.8782,2.8784,2.8785,2.8759,2.88,2.8867,2.8874,2.8786,2.8786,2.8785,0,2.8733,2.8754,2.8778,2.8781,2.8785,2.8796,2.8798,2.8801,2.8808,2.8816,2.8821,2.8831,2.8836,2.8844,2.8836,2.8819,2.8863,2.8839,2.8861,2.8862,2.8871,2.8871,2.8941,2.8875,2.8875,2.8875,2.8875,0,2.8783,2.8805,2.8797,2.8812,2.8836,2.8826,2.8851,2.885,2.8854,2.8868,2.8853,2.8867,2.8855,2.8867,2.8861,2.8884,2.8886,2.8885,2.8883,2.8886,2.8887,2.889,2.8887,2.8876,2.8876,2.8876,2.8875,0,2.8834,2.883,2.8855,2.8857,2.8858,2.8876,2.8877,2.8891,2.8888,2.8906,2.891,2.8905,2.8919,2.8912,2.8926,2.8922,2.8952,2.8946,2.8951,2.895,2.8973,2.8971,2.9048,2.9058,2.8985,2.8986,2.8987,0,2.8866,2.8883,2.8888,2.8897,2.8901,2.8915,2.8923,2.8914,2.8923,2.893,2.8943,2.8957,2.8967,2.899,2.8988,2.8999,2.8993,2.9019,2.8994,2.8998,2.8994,2.8994,2.8996,2.9024,2.9025,2.9026,2.9026,0,2.8924,2.8922,2.8935,2.8947,2.8958,2.8967,2.8974,2.8982,2.8974,2.8985,2.9,2.9008,2.9024,2.9037,2.9048,2.9049,2.9037,2.9034,2.904,2.9044,2.9047,2.9047,2.8965,2.9033,2.9032,2.9031,2.9031,2.9031,2.8968,2.8983,2.8989,2.9004,2.9009,2.9017,2.9031,2.903,2.9043,2.9056,2.905,2.9068,2.9073,2.9085,2.9089,2.9102,2.9092,2.91,2.9102,2.9105,2.9108,2.9045,2.9104,2.9104,2.9104,2.9103,2.9103,0,2.9026,2.9029,2.9043,2.9056,2.9068,2.9057,2.9065,2.9076,2.9092,2.9098,2.9109,2.9127,2.9141,2.914,2.9152,2.9164,2.9158,2.9167,2.9166,2.9167,2.9117,2.9111,2.9171,2.9171,2.9171,2.9171,2.9171,2.9171,2.9057,2.9083,2.9081,2.9109,2.9112,2.9131,2.9137,2.9144,2.915,2.9171,2.9183,2.9182,2.9186,2.9199,2.9211,2.921,2.9216,2.9227,2.9224,2.9177,2.917,2.9164,2.9158,2.9228,2.9228,2.9273,2.9274,2.9274]}]]